Regional Weather Roundup
Issued by NWS

Home | Current Version | Previous Version | Text Only | Print | Product List | Glossary Off
Versions: 1 2 3 4 5 6 7 8 9 10 11 12 13 14 15 16 17 18 19 20 21 22 23 24 25 26 27 28 29 30 31 32 33 34 35 36 37 38 39 40 41 42 43 44 45 46 47 48 49 50

000
ASUS43 KTOP 021008
RWRKS

WEATHER ROUNDUP FOR KANSAS
NATIONAL WEATHER SERVICE GOODLAND KS
400 AM CST MON MAR 02 2015

NOTE:  "FAIR" INDICATES FEW OR NO CLOUDS BELOW 12,000 FEET WITH NO
SIGNIFICANT WEATHER AND/OR OBSTRUCTIONS TO VISIBILITY.

KSZ001>006-013>018-027>032-041>047-021100-
NORTHWEST KANSAS

CITY           SKY/WX    TMP DP  RH WIND       PRES   REMARKS
GOODLAND       MOCLDY    25  22  88 SE7       30.25F
HAYS           MOCLDY    21  10  63 S6        30.38F
HILL CITY      CLOUDY    29  21  72 CALM      30.37F
RUSSELL        MOCLDY    22  20  92 SE6       30.37F
$$

KSZ061>065-074>080-084>089-021100-
SOUTHWEST KANSAS

CITY           SKY/WX    TMP DP  RH WIND       PRES   REMARKS
DODGE CITY     MOCLDY    22  17  81 SE7       30.34F
ELKHART          N/A     23  17  78 S7          N/A
GARDEN CITY    MOCLDY    20  17  88 SE6       30.31F
GREAT BEND     MOCLDY    19  14  79 CALM      30.40F
LIBERAL        MOCLDY    23  18  80 SW6       30.34F
PRATT          MOCLDY    25  21  86 E3        30.39F
$$

KSZ066>073-081>083-090>101-021100-
SOUTHEAST KANSAS

CITY           SKY/WX    TMP DP  RH WIND       PRES   REMARKS
CHANUTE        PTCLDY    18  16  92 CALM      30.47F
COFFEYVILLE    MOCLDY    23  20  88 NE7       30.48F
HUTCHINSON     PTCLDY    18  13  80 CALM      30.43F
MEDICINE LODGE   N/A     20  19  96 CALM      30.42F
NEWTON         PTCLDY    21  14  73 E3        30.44F
PARSONS        MOCLDY    23  19  85 NE3       30.48F
WICHITA INTL   MOCLDY    19  16  88 CALM      30.45F FOG
WICHITA JABRA  MOCLDY    19  16  88 NE3       30.44F
WICHITA MCCONL MOCLDY    21  18  87 NE5       30.44F
WINFIELD       PTCLDY    18  16  92 CALM      30.46F
$$

KSZ007>012-019>026-033>040-048>060-102>105-021100-
NORTHEAST KANSAS

CITY           SKY/WX    TMP DP  RH WIND       PRES   REMARKS
CONCORDIA      MOCLDY    29  23  78 SW5       30.43F
EMPORIA        PTCLDY    20  17  88 CALM      30.45F
LAWRENCE       MOCLDY    19  16  88 CALM      30.50S
MANHATTAN      MOCLDY    21  19  92 CALM      30.47F
MARYSVILLE     CLOUDY    28  27  93 CALM      30.44F
OLATHE IND     PTCLDY    18  16  92 CALM      30.48F
OLATHE EXE     PTCLDY    19  17  92 CALM      30.47F
SALINA         PTCLDY    23  19  85 CALM      30.45F
TOPEKA BILLARD PTCLDY    21  18  88 CALM      30.49F
TOPEKA FORBES  PTCLDY    20  16  84 CALM      30.46F
$$


USA.gov is the U.S. government's official web portal to all federal, state and local government web resources and services.